Satellite: NOAA-11
Catalog number: 19531
Epoch time:      08107.78492277
Element set:    0126
Inclination:      098.7954 deg
RA of node:       197.9686 deg
Eccentricity:    0.0010871
Arg of perigee:   241.0454 deg
Mean anomaly:     118.9607 deg
Mean motion:   14.14870509 rev/day
Decay rate:       1.38e-06 rev/day^2
Epoch rev:           00922
Checksum:              323

Satellite: NOAA-12
Catalog number: 21263
Epoch time:      08107.78656455
Element set:    0633
Inclination:      098.7671 deg
RA of node:       109.7451 deg
Eccentricity:    0.0011722
Arg of perigee:   307.1834 deg
Mean anomaly:     052.8256 deg
Mean motion:   14.25526174 rev/day
Decay rate:       -6.7e-07 rev/day^2
Epoch rev:           87964
Checksum:              319

Satellite: MET-3/5
Catalog number: 21655
Epoch time:      08107.96189905
Element set:    0473
Inclination:      082.5559 deg
RA of node:       147.6394 deg
Eccentricity:    0.0013485
Arg of perigee:   160.6333 deg
Mean anomaly:     199.5302 deg
Mean motion:   13.17015129 rev/day
Decay rate:        5.1e-07 rev/day^2
Epoch rev:           80152
Checksum:              307

Satellite: MET-2/21
Catalog number: 22782
Epoch time:      08108.68219172
Element set:     118
Inclination:      082.5495 deg
RA of node:       159.5759 deg
Eccentricity:    0.0024210
Arg of perigee:   099.2381 deg
Mean anomaly:     261.1528 deg
Mean motion:   13.83626549 rev/day
Decay rate:       -2.8e-07 rev/day^2
Epoch rev:           73876
Checksum:              329

Satellite: OKEAN-4
Catalog number: 23317
Epoch time:      08107.77568609
Element set:    0562
Inclination:      082.5421 deg
RA of node:       012.3706 deg
Eccentricity:    0.0021689
Arg of perigee:   334.0927 deg
Mean anomaly:     025.9221 deg
Mean motion:   14.82600481 rev/day
Decay rate:       1.36e-06 rev/day^2
Epoch rev:           72918
Checksum:              294

Satellite: NOAA-14
Catalog number: 23455
Epoch time:      08107.83325827
Element set:    0108
Inclination:      098.9479 deg
RA of node:       180.0317 deg
Eccentricity:    0.0008686
Arg of perigee:   322.4633 deg
Mean anomaly:     037.5941 deg
Mean motion:   14.13738157 rev/day
Decay rate:       -2.1e-07 rev/day^2
Epoch rev:           68568
Checksum:              321

Satellite: SICH-1
Catalog number: 23657
Epoch time:      08107.75643627
Element set:    0359
Inclination:      082.5287 deg
RA of node:       153.3673 deg
Eccentricity:    0.0022884
Arg of perigee:   326.0110 deg
Mean anomaly:     033.9666 deg
Mean motion:   14.81568156 rev/day
Decay rate:        1.7e-07 rev/day^2
Epoch rev:           68112
Checksum:              309

Satellite: NOAA-15
Catalog number: 25338
Epoch time:      08107.83591582
Element set:    0432
Inclination:      098.5530 deg
RA of node:       101.2621 deg
Eccentricity:    0.0009985
Arg of perigee:   216.7730 deg
Mean anomaly:     143.2739 deg
Mean motion:   14.24695053 rev/day
Decay rate:       -5.7e-07 rev/day^2
Epoch rev:           51606
Checksum:              303

Satellite: RESURS
Catalog number: 25394
Epoch time:      08107.70433987
Element set:    0911
Inclination:      098.3922 deg
RA of node:       154.4458 deg
Eccentricity:    0.0002217
Arg of perigee:   041.2655 deg
Mean anomaly:     318.8691 deg
Mean motion:   14.24156382 rev/day
Decay rate:       -2.8e-07 rev/day^2
Epoch rev:           50769
Checksum:              310

Satellite: FENGYUN1
Catalog number: 25730
Epoch time:      08108.92578429
Element set:     389
Inclination:      098.7221 deg
RA of node:       086.7557 deg
Eccentricity:    0.0022150
Arg of perigee:   345.7429 deg
Mean anomaly:     014.3114 deg
Mean motion:   14.07719974 rev/day
Decay rate:      -1.49e-06 rev/day^2
Epoch rev:           46048
Checksum:              321

Satellite: OKEAN-0
Catalog number: 25860
Epoch time:      08107.59373575
Element set:    0344
Inclination:      097.7482 deg
RA of node:       100.8764 deg
Eccentricity:    0.0001763
Arg of perigee:   084.3461 deg
Mean anomaly:     275.7943 deg
Mean motion:   14.73514886 rev/day
Decay rate:        4.7e-07 rev/day^2
Epoch rev:           47032
Checksum:              320

Satellite: NOAA-16
Catalog number: 26536
Epoch time:      08107.79193016
Element set:    0896
Inclination:      099.1540 deg
RA of node:       095.6319 deg
Eccentricity:    0.0011115
Arg of perigee:   041.2380 deg
Mean anomaly:     318.9608 deg
Mean motion:   14.12477632 rev/day
Decay rate:       2.49e-06 rev/day^2
Epoch rev:           39010
Checksum:              302

Satellite: NOAA-17
Catalog number: 27453
Epoch time:      08107.71015676
Element set:    0891
Inclination:      098.5378 deg
RA of node:       174.1042 deg
Eccentricity:    0.0010738
Arg of perigee:   288.0803 deg
Mean anomaly:     071.9199 deg
Mean motion:   14.23965893 rev/day
Decay rate:       1.77e-06 rev/day^2
Epoch rev:           30205
Checksum:              324

